Time,TemperatureF,DewpointF,PressureIn,WindDirection,WindDirectionDegrees,WindSpeedMPH,WindSpeedGustMPH,Humidity,HourlyPrecipIn,Conditions,Clouds,dailyrainin,SoftwareType,DateUTC
2013-03-29 00:07:00,29.1,16.2,29.63,North,-999,-999.0,-999.0,58,-99.99,,,-99.99,meteohub,2013-03-29 00:07:00,
2013-03-29 00:12:00,29.3,16.7,29.63,North,-999,-999.0,-999.0,59,-99.99,,,-99.99,meteohub,2013-03-29 00:12:00,
2013-03-29 00:17:00,28.9,16.5,29.63,North,-999,-999.0,-999.0,59,-99.99,,,-99.99,meteohub,2013-03-29 00:17:00,
2013-03-29 00:22:00,28.8,16.7,29.63,North,-999,-999.0,-999.0,60,-99.99,,,-99.99,meteohub,2013-03-29 00:22:00,
2013-03-29 00:27:00,28.2,16.2,29.63,North,-999,-999.0,-999.0,60,-99.99,,,-99.99,meteohub,2013-03-29 00:27:00,
2013-03-29 00:32:00,27.7,15.6,29.63,North,-999,-999.0,-999.0,60,-99.99,,,-99.99,meteohub,2013-03-29 00:32:00,
2013-03-29 00:42:00,27.3,15.6,29.63,North,-999,-999.0,-999.0,61,-99.99,,,-99.99,meteohub,2013-03-29 00:42:00,
2013-03-29 00:47:00,27.3,16.0,29.63,North,-999,-999.0,-999.0,62,-99.99,,,-99.99,meteohub,2013-03-29 00:47:00,
2013-03-29 00:52:00,27.1,15.8,29.63,North,-999,-999.0,-999.0,62,-99.99,,,-99.99,meteohub,2013-03-29 00:52:00,
2013-03-29 00:57:00,27.1,16.2,29.63,North,-999,-999.0,-999.0,63,-99.99,,,-99.99,meteohub,2013-03-29 00:57:00,
2013-03-29 01:02:00,27.9,17.6,29.63,North,-999,-999.0,-999.0,65,-99.99,,,-99.99,meteohub,2013-03-29 01:02:00,
2013-03-29 01:07:00,28.0,18.5,29.60,North,-999,-999.0,-999.0,67,-99.99,,,-99.99,meteohub,2013-03-29 01:07:00,
2013-03-29 01:17:00,27.9,18.3,29.60,North,-999,-999.0,-999.0,67,-99.99,,,-99.99,meteohub,2013-03-29 01:17:00,
2013-03-29 01:27:00,27.7,18.1,29.60,North,-999,-999.0,-999.0,67,-99.99,,,-99.99,meteohub,2013-03-29 01:27:00,
2013-03-29 01:37:00,27.7,18.5,29.60,North,-999,-999.0,-999.0,68,-99.99,,,-99.99,meteohub,2013-03-29 01:37:00,
2013-03-29 01:47:00,27.0,17.4,29.60,North,-999,-999.0,-999.0,67,-99.99,,,-99.99,meteohub,2013-03-29 01:47:00,
2013-03-29 01:52:00,27.0,17.8,29.60,North,-999,-999.0,-999.0,68,-99.99,,,-99.99,meteohub,2013-03-29 01:52:00,
2013-03-29 01:57:00,27.3,18.5,29.60,North,-999,-999.0,-999.0,69,-99.99,,,-99.99,meteohub,2013-03-29 01:57:00,
2013-03-29 02:02:00,27.1,18.3,29.60,North,-999,-999.0,-999.0,69,-99.99,,,-99.99,meteohub,2013-03-29 02:02:00,
2013-03-29 02:07:00,27.0,18.1,29.60,North,-999,-999.0,-999.0,69,-99.99,,,-99.99,meteohub,2013-03-29 02:07:00,
2013-03-29 02:12:00,26.6,17.8,29.60,North,-999,-999.0,-999.0,69,-99.99,,,-99.99,meteohub,2013-03-29 02:12:00,
2013-03-29 02:17:00,26.4,18.0,29.60,North,-999,-999.0,-999.0,70,-99.99,,,-99.99,meteohub,2013-03-29 02:17:00,
2013-03-29 02:22:00,26.1,17.2,29.60,North,-999,-999.0,-999.0,69,-99.99,,,-99.99,meteohub,2013-03-29 02:22:00,
2013-03-29 02:27:00,25.7,17.2,29.60,North,-999,-999.0,-999.0,70,-99.99,,,-99.99,meteohub,2013-03-29 02:27:00,
2013-03-29 02:32:00,25.2,16.7,29.60,North,-999,-999.0,-999.0,70,-99.99,,,-99.99,meteohub,2013-03-29 02:32:00,
2013-03-29 02:37:00,25.3,17.2,29.60,North,-999,-999.0,-999.0,71,-99.99,,,-99.99,meteohub,2013-03-29 02:37:00,
2013-03-29 02:42:00,25.5,17.8,29.60,North,-999,-999.0,-999.0,72,-99.99,,,-99.99,meteohub,2013-03-29 02:42:00,
2013-03-29 02:47:00,25.9,18.1,29.60,North,-999,-999.0,-999.0,72,-99.99,,,-99.99,meteohub,2013-03-29 02:47:00,
2013-03-29 02:57:00,26.6,19.2,29.60,North,-999,-999.0,-999.0,73,-99.99,,,-99.99,meteohub,2013-03-29 02:57:00,
2013-03-29 03:02:00,26.6,19.2,29.60,North,-999,-999.0,-999.0,73,-99.99,,,-99.99,meteohub,2013-03-29 03:02:00,
2013-03-29 03:12:00,27.0,19.4,29.60,North,-999,-999.0,-999.0,73,-99.99,,,-99.99,meteohub,2013-03-29 03:12:00,
2013-03-29 03:17:00,27.1,19.6,29.60,North,-999,-999.0,-999.0,73,-99.99,,,-99.99,meteohub,2013-03-29 03:17:00,
2013-03-29 03:22:00,27.3,19.8,29.60,North,-999,-999.0,-999.0,73,-99.99,,,-99.99,meteohub,2013-03-29 03:22:00,
2013-03-29 03:32:00,27.7,20.1,29.60,North,-999,-999.0,-999.0,73,-99.99,,,-99.99,meteohub,2013-03-29 03:32:00,
2013-03-29 03:37:00,27.9,20.3,29.60,North,-999,-999.0,-999.0,73,-99.99,,,-99.99,meteohub,2013-03-29 03:37:00,
2013-03-29 03:42:00,28.2,20.7,29.60,North,-999,-999.0,-999.0,73,-99.99,,,-99.99,meteohub,2013-03-29 03:42:00,
2013-03-29 03:47:00,28.4,21.2,29.60,North,-999,-999.0,-999.0,74,-99.99,,,-99.99,meteohub,2013-03-29 03:47:00,
2013-03-29 03:52:00,28.6,21.0,29.60,North,-999,-999.0,-999.0,73,-99.99,,,-99.99,meteohub,2013-03-29 03:52:00,
2013-03-29 03:57:00,28.9,21.7,29.60,North,-999,-999.0,-999.0,74,-99.99,,,-99.99,meteohub,2013-03-29 03:57:00,
2013-03-29 04:02:00,29.1,21.9,29.60,North,-999,-999.0,-999.0,74,-99.99,,,-99.99,meteohub,2013-03-29 04:02:00,
2013-03-29 04:07:00,29.7,22.6,29.60,North,-999,-999.0,-999.0,75,-99.99,,,-99.99,meteohub,2013-03-29 04:07:00,
2013-03-29 04:12:00,30.0,23.0,29.60,North,-999,-999.0,-999.0,75,-99.99,,,-99.99,meteohub,2013-03-29 04:12:00,
2013-03-29 04:17:00,30.2,23.2,29.60,North,-999,-999.0,-999.0,75,-99.99,,,-99.99,meteohub,2013-03-29 04:17:00,
2013-03-29 04:22:00,30.4,22.8,29.60,North,-999,-999.0,-999.0,73,-99.99,,,-99.99,meteohub,2013-03-29 04:22:00,
2013-03-29 04:27:00,30.6,22.6,29.60,North,-999,-999.0,-999.0,72,-99.99,,,-99.99,meteohub,2013-03-29 04:27:00,
2013-03-29 04:32:00,30.7,22.8,29.60,North,-999,-999.0,-999.0,72,-99.99,,,-99.99,meteohub,2013-03-29 04:32:00,
2013-03-29 04:42:00,30.9,22.6,29.60,North,-999,-999.0,-999.0,71,-99.99,,,-99.99,meteohub,2013-03-29 04:42:00,
2013-03-29 04:47:00,30.9,22.3,29.60,North,-999,-999.0,-999.0,70,-99.99,,,-99.99,meteohub,2013-03-29 04:47:00,
2013-03-29 04:52:00,30.7,22.1,29.57,North,-999,-999.0,-999.0,70,-99.99,,,-99.99,meteohub,2013-03-29 04:52:00,
2013-03-29 05:02:00,30.6,21.6,29.57,North,-999,-999.0,-999.0,69,-99.99,,,-99.99,meteohub,2013-03-29 05:02:00,
2013-03-29 05:07:00,30.4,21.4,29.57,North,-999,-999.0,-999.0,69,-99.99,,,-99.99,meteohub,2013-03-29 05:07:00,
2013-03-29 05:12:00,30.2,21.2,29.57,North,-999,-999.0,-999.0,69,-99.99,,,-99.99,meteohub,2013-03-29 05:12:00,
2013-03-29 05:22:00,30.4,21.4,29.57,North,-999,-999.0,-999.0,69,-99.99,,,-99.99,meteohub,2013-03-29 05:22:00,
2013-03-29 05:27:00,30.6,21.6,29.57,North,-999,-999.0,-999.0,69,-99.99,,,-99.99,meteohub,2013-03-29 05:27:00,
2013-03-29 05:32:00,30.7,21.7,29.57,North,-999,-999.0,-999.0,69,-99.99,,,-99.99,meteohub,2013-03-29 05:32:00,
2013-03-29 05:37:00,30.9,22.3,29.57,North,-999,-999.0,-999.0,70,-99.99,,,-99.99,meteohub,2013-03-29 05:37:00,
2013-03-29 05:42:00,31.1,22.5,29.57,North,-999,-999.0,-999.0,70,-99.99,,,-99.99,meteohub,2013-03-29 05:42:00,
2013-03-29 05:47:00,31.1,22.5,29.57,North,-999,-999.0,-999.0,70,-99.99,,,-99.99,meteohub,2013-03-29 05:47:00,
2013-03-29 05:57:00,31.1,22.1,29.60,North,-999,-999.0,-999.0,69,-99.99,,,-99.99,meteohub,2013-03-29 05:57:00,
2013-03-29 06:07:00,31.3,22.3,29.60,North,-999,-999.0,-999.0,69,-99.99,,,-99.99,meteohub,2013-03-29 06:07:00,
2013-03-29 06:12:00,31.3,22.3,29.60,North,-999,-999.0,-999.0,69,-99.99,,,-99.99,meteohub,2013-03-29 06:12:00,
2013-03-29 06:17:00,31.5,22.5,29.60,North,-999,-999.0,-999.0,69,-99.99,,,-99.99,meteohub,2013-03-29 06:17:00,
2013-03-29 06:22:00,31.6,22.6,29.60,North,-999,-999.0,-999.0,69,-99.99,,,-99.99,meteohub,2013-03-29 06:22:00,
2013-03-29 06:27:00,31.6,22.6,29.60,North,-999,-999.0,-999.0,69,-99.99,,,-99.99,meteohub,2013-03-29 06:27:00,
2013-03-29 06:37:00,32.0,23.0,29.60,North,-999,-999.0,-999.0,69,-99.99,,,-99.99,meteohub,2013-03-29 06:37:00,
2013-03-29 06:42:00,32.0,23.0,29.60,North,-999,-999.0,-999.0,69,-99.99,,,-99.99,meteohub,2013-03-29 06:42:00,
2013-03-29 06:47:00,32.2,23.2,29.60,North,-999,-999.0,-999.0,69,-99.99,,,-99.99,meteohub,2013-03-29 06:47:00,
2013-03-29 06:52:00,32.2,23.2,29.60,North,-999,-999.0,-999.0,69,-99.99,,,-99.99,meteohub,2013-03-29 06:52:00,
2013-03-29 07:02:00,32.4,23.4,29.60,North,-999,-999.0,-999.0,69,-99.99,,,-99.99,meteohub,2013-03-29 07:02:00,
2013-03-29 07:07:00,32.5,23.5,29.60,North,-999,-999.0,-999.0,69,-99.99,,,-99.99,meteohub,2013-03-29 07:07:00,
2013-03-29 07:17:00,32.9,23.9,29.60,North,-999,-999.0,-999.0,69,-99.99,,,-99.99,meteohub,2013-03-29 07:17:00,
2013-03-29 07:22:00,34.0,25.0,29.60,North,-999,-999.0,-999.0,69,-99.99,,,-99.99,meteohub,2013-03-29 07:22:00,
2013-03-29 07:27:00,35.8,26.2,29.60,North,-999,-999.0,-999.0,68,-99.99,,,-99.99,meteohub,2013-03-29 07:27:00,
2013-03-29 07:32:00,37.9,27.0,29.60,North,-999,-999.0,-999.0,64,-99.99,,,-99.99,meteohub,2013-03-29 07:32:00,
2013-03-29 07:42:00,39.4,26.2,29.57,North,-999,-999.0,-999.0,59,-99.99,,,-99.99,meteohub,2013-03-29 07:42:00,
2013-03-29 07:47:00,39.7,24.1,29.57,North,-999,-999.0,-999.0,53,-99.99,,,-99.99,meteohub,2013-03-29 07:47:00,
2013-03-29 07:52:00,40.5,23.7,29.57,North,-999,-999.0,-999.0,51,-99.99,,,-99.99,meteohub,2013-03-29 07:52:00,
2013-03-29 07:57:00,40.6,23.9,29.57,North,-999,-999.0,-999.0,51,-99.99,,,-99.99,meteohub,2013-03-29 07:57:00,
2013-03-29 08:02:00,41.4,23.7,29.57,North,-999,-999.0,-999.0,49,-99.99,,,-99.99,meteohub,2013-03-29 08:02:00,
2013-03-29 08:07:00,41.2,23.0,29.57,North,-999,-999.0,-999.0,48,-99.99,,,-99.99,meteohub,2013-03-29 08:07:00,
2013-03-29 08:12:00,41.7,23.0,29.57,North,-999,-999.0,-999.0,47,-99.99,,,-99.99,meteohub,2013-03-29 08:12:00,
2013-03-29 08:22:00,42.6,22.3,29.57,North,-999,-999.0,-999.0,44,-99.99,,,-99.99,meteohub,2013-03-29 08:22:00,
2013-03-29 08:27:00,43.0,22.1,29.57,North,-999,-999.0,-999.0,43,-99.99,,,-99.99,meteohub,2013-03-29 08:27:00,
2013-03-29 08:32:00,43.7,22.6,29.57,North,-999,-999.0,-999.0,43,-99.99,,,-99.99,meteohub,2013-03-29 08:32:00,
2013-03-29 08:37:00,43.3,20.7,29.57,North,-999,-999.0,-999.0,40,-99.99,,,-99.99,meteohub,2013-03-29 08:37:00,
2013-03-29 08:42:00,43.3,20.7,29.57,North,-999,-999.0,-999.0,40,-99.99,,,-99.99,meteohub,2013-03-29 08:42:00,
2013-03-29 08:47:00,44.6,21.7,29.57,North,-999,-999.0,-999.0,40,-99.99,,,-99.99,meteohub,2013-03-29 08:47:00,
2013-03-29 08:52:00,44.2,20.8,29.57,North,-999,-999.0,-999.0,39,-99.99,,,-99.99,meteohub,2013-03-29 08:52:00,
2013-03-29 08:57:00,44.8,21.4,29.57,North,-999,-999.0,-999.0,39,-99.99,,,-99.99,meteohub,2013-03-29 08:57:00,
2013-03-29 09:07:00,45.3,21.2,29.57,North,-999,-999.0,-999.0,38,-99.99,,,-99.99,meteohub,2013-03-29 09:07:00,
2013-03-29 09:12:00,45.1,21.0,29.57,North,-999,-999.0,-999.0,38,-99.99,,,-99.99,meteohub,2013-03-29 09:12:00,
2013-03-29 09:22:00,45.9,21.7,29.57,North,-999,-999.0,-999.0,38,-99.99,,,-99.99,meteohub,2013-03-29 09:22:00,
2013-03-29 09:32:00,46.9,22.1,29.57,North,-999,-999.0,-999.0,37,-99.99,,,-99.99,meteohub,2013-03-29 09:32:00,
2013-03-29 09:37:00,46.6,21.7,29.57,North,-999,-999.0,-999.0,37,-99.99,,,-99.99,meteohub,2013-03-29 09:37:00,
2013-03-29 09:42:00,45.1,20.5,29.57,North,-999,-999.0,-999.0,37,-99.99,,,-99.99,meteohub,2013-03-29 09:42:00,
2013-03-29 09:47:00,45.1,20.5,29.57,North,-999,-999.0,-999.0,37,-99.99,,,-99.99,meteohub,2013-03-29 09:47:00,
2013-03-29 09:52:00,43.2,18.7,29.57,North,-999,-999.0,-999.0,37,-99.99,,,-99.99,meteohub,2013-03-29 09:52:00,
2013-03-29 09:57:00,45.1,20.5,29.57,North,-999,-999.0,-999.0,37,-99.99,,,-99.99,meteohub,2013-03-29 09:57:00,
2013-03-29 10:02:00,45.1,20.5,29.57,North,-999,-999.0,-999.0,37,-99.99,,,-99.99,meteohub,2013-03-29 10:02:00,
2013-03-29 10:07:00,47.3,21.7,29.54,North,-999,-999.0,-999.0,36,-99.99,,,-99.99,meteohub,2013-03-29 10:07:00,
2013-03-29 10:12:00,47.8,20.1,29.54,North,-999,-999.0,-999.0,33,-99.99,,,-99.99,meteohub,2013-03-29 10:12:00,
2013-03-29 10:17:00,48.7,21.7,29.54,North,-999,-999.0,-999.0,34,-99.99,,,-99.99,meteohub,2013-03-29 10:17:00,
2013-03-29 10:22:00,48.7,21.7,29.54,North,-999,-999.0,-999.0,34,-99.99,,,-99.99,meteohub,2013-03-29 10:22:00,
2013-03-29 10:27:00,49.3,22.1,29.54,North,-999,-999.0,-999.0,34,-99.99,,,-99.99,meteohub,2013-03-29 10:27:00,
2013-03-29 10:32:00,48.9,21.2,29.54,North,-999,-999.0,-999.0,33,-99.99,,,-99.99,meteohub,2013-03-29 10:32:00,
2013-03-29 10:37:00,45.9,17.8,29.54,North,-999,-999.0,-999.0,32,-99.99,,,-99.99,meteohub,2013-03-29 10:37:00,
2013-03-29 10:42:00,44.4,17.2,29.54,North,-999,-999.0,-999.0,33,-99.99,,,-99.99,meteohub,2013-03-29 10:42:00,
2013-03-29 10:47:00,42.8,15.8,29.54,North,-999,-999.0,-999.0,33,-99.99,,,-99.99,meteohub,2013-03-29 10:47:00,
2013-03-29 10:52:00,43.9,16.7,29.54,North,-999,-999.0,-999.0,33,-99.99,,,-99.99,meteohub,2013-03-29 10:52:00,
2013-03-29 10:57:00,47.3,19.8,29.54,North,-999,-999.0,-999.0,33,-99.99,,,-99.99,meteohub,2013-03-29 10:57:00,
2013-03-29 11:02:00,48.7,19.6,29.54,North,-999,-999.0,-999.0,31,-99.99,,,-99.99,meteohub,2013-03-29 11:02:00,
2013-03-29 11:07:00,46.8,17.8,29.54,North,-999,-999.0,-999.0,31,-99.99,,,-99.99,meteohub,2013-03-29 11:07:00,
2013-03-29 11:12:00,46.2,17.2,29.54,North,-999,-999.0,-999.0,31,-99.99,,,-99.99,meteohub,2013-03-29 11:12:00,
2013-03-29 11:22:00,51.6,21.2,29.54,North,-999,-999.0,-999.0,30,-99.99,,,-99.99,meteohub,2013-03-29 11:22:00,
2013-03-29 11:27:00,52.2,20.8,29.54,North,-999,-999.0,-999.0,29,-99.99,,,-99.99,meteohub,2013-03-29 11:27:00,
2013-03-29 11:37:00,51.4,20.3,29.54,North,-999,-999.0,-999.0,29,-99.99,,,-99.99,meteohub,2013-03-29 11:37:00,
2013-03-29 11:42:00,51.6,20.5,29.54,North,-999,-999.0,-999.0,29,-99.99,,,-99.99,meteohub,2013-03-29 11:42:00,
2013-03-29 11:47:00,47.7,17.1,29.54,North,-999,-999.0,-999.0,29,-99.99,,,-99.99,meteohub,2013-03-29 11:47:00,
2013-03-29 11:57:00,48.0,18.1,29.54,North,-999,-999.0,-999.0,30,-99.99,,,-99.99,meteohub,2013-03-29 11:57:00,
2013-03-29 12:02:00,51.3,20.1,29.54,North,-999,-999.0,-999.0,29,-99.99,,,-99.99,meteohub,2013-03-29 12:02:00,
2013-03-29 12:07:00,47.1,17.4,29.54,North,-999,-999.0,-999.0,30,-99.99,,,-99.99,meteohub,2013-03-29 12:07:00,
2013-03-29 12:17:00,45.1,16.3,29.54,North,-999,-999.0,-999.0,31,-99.99,,,-99.99,meteohub,2013-03-29 12:17:00,
2013-03-29 12:22:00,43.7,15.1,29.54,North,-999,-999.0,-999.0,31,-99.99,,,-99.99,meteohub,2013-03-29 12:22:00,
2013-03-29 12:27:00,44.8,16.7,29.54,North,-999,-999.0,-999.0,32,-99.99,,,-99.99,meteohub,2013-03-29 12:27:00,
2013-03-29 12:37:00,50.0,21.4,29.54,North,-999,-999.0,-999.0,32,-99.99,,,-99.99,meteohub,2013-03-29 12:37:00,
2013-03-29 12:42:00,50.4,20.1,29.54,North,-999,-999.0,-999.0,30,-99.99,,,-99.99,meteohub,2013-03-29 12:42:00,
2013-03-29 12:47:00,51.6,21.2,29.54,North,-999,-999.0,-999.0,30,-99.99,,,-99.99,meteohub,2013-03-29 12:47:00,
2013-03-29 12:57:00,47.8,17.2,29.54,North,-999,-999.0,-999.0,29,-99.99,,,-99.99,meteohub,2013-03-29 12:57:00,
2013-03-29 13:02:00,51.6,20.5,29.54,North,-999,-999.0,-999.0,29,-99.99,,,-99.99,meteohub,2013-03-29 13:02:00,
2013-03-29 13:12:00,52.2,20.1,29.54,North,-999,-999.0,-999.0,28,-99.99,,,-99.99,meteohub,2013-03-29 13:12:00,
2013-03-29 13:17:00,48.9,17.2,29.54,North,-999,-999.0,-999.0,28,-99.99,,,-99.99,meteohub,2013-03-29 13:17:00,
2013-03-29 13:22:00,47.8,17.2,29.54,North,-999,-999.0,-999.0,29,-99.99,,,-99.99,meteohub,2013-03-29 13:22:00,
2013-03-29 13:27:00,47.7,17.1,29.54,North,-999,-999.0,-999.0,29,-99.99,,,-99.99,meteohub,2013-03-29 13:27:00,
2013-03-29 13:32:00,46.8,16.3,29.54,North,-999,-999.0,-999.0,29,-99.99,,,-99.99,meteohub,2013-03-29 13:32:00,
2013-03-29 13:42:00,44.8,15.3,29.54,North,-999,-999.0,-999.0,30,-99.99,,,-99.99,meteohub,2013-03-29 13:42:00,
2013-03-29 13:52:00,44.2,15.6,29.54,North,-999,-999.0,-999.0,31,-99.99,,,-99.99,meteohub,2013-03-29 13:52:00,
2013-03-29 14:02:00,44.6,16.0,29.54,North,-999,-999.0,-999.0,31,-99.99,,,-99.99,meteohub,2013-03-29 14:02:00,
2013-03-29 14:12:00,43.7,15.8,29.51,North,-999,-999.0,-999.0,32,-99.99,,,-99.99,meteohub,2013-03-29 14:12:00,
2013-03-29 14:22:00,43.9,15.3,29.51,North,-999,-999.0,-999.0,31,-99.99,,,-99.99,meteohub,2013-03-29 14:22:00,
2013-03-29 14:27:00,44.2,15.6,29.51,North,-999,-999.0,-999.0,31,-99.99,,,-99.99,meteohub,2013-03-29 14:27:00,
2013-03-29 14:37:00,43.3,15.4,29.51,North,-999,-999.0,-999.0,32,-99.99,,,-99.99,meteohub,2013-03-29 14:37:00,
2013-03-29 14:42:00,43.0,15.3,29.51,North,-999,-999.0,-999.0,32,-99.99,,,-99.99,meteohub,2013-03-29 14:42:00,
2013-03-29 14:47:00,43.2,15.4,29.51,North,-999,-999.0,-999.0,32,-99.99,,,-99.99,meteohub,2013-03-29 14:47:00,
2013-03-29 14:52:00,43.5,15.6,29.51,North,-999,-999.0,-999.0,32,-99.99,,,-99.99,meteohub,2013-03-29 14:52:00,
2013-03-29 14:57:00,43.7,15.8,29.51,North,-999,-999.0,-999.0,32,-99.99,,,-99.99,meteohub,2013-03-29 14:57:00,
2013-03-29 15:02:00,43.0,16.0,29.51,North,-999,-999.0,-999.0,33,-99.99,,,-99.99,meteohub,2013-03-29 15:02:00,
2013-03-29 15:07:00,42.4,15.4,29.51,North,-999,-999.0,-999.0,33,-99.99,,,-99.99,meteohub,2013-03-29 15:07:00,
2013-03-29 15:12:00,42.1,15.8,29.51,North,-999,-999.0,-999.0,34,-99.99,,,-99.99,meteohub,2013-03-29 15:12:00,
2013-03-29 15:22:00,42.1,17.1,29.51,North,-999,-999.0,-999.0,36,-99.99,,,-99.99,meteohub,2013-03-29 15:22:00,
2013-03-29 15:27:00,42.3,17.2,29.51,North,-999,-999.0,-999.0,36,-99.99,,,-99.99,meteohub,2013-03-29 15:27:00,
2013-03-29 15:37:00,44.1,18.1,29.51,North,-999,-999.0,-999.0,35,-99.99,,,-99.99,meteohub,2013-03-29 15:37:00,
2013-03-29 15:42:00,43.3,17.6,29.51,North,-999,-999.0,-999.0,35,-99.99,,,-99.99,meteohub,2013-03-29 15:42:00,
2013-03-29 15:47:00,43.0,17.2,29.51,North,-999,-999.0,-999.0,35,-99.99,,,-99.99,meteohub,2013-03-29 15:47:00,
2013-03-29 15:52:00,42.4,17.4,29.51,North,-999,-999.0,-999.0,36,-99.99,,,-99.99,meteohub,2013-03-29 15:52:00,
2013-03-29 16:02:00,41.7,16.2,29.51,North,-999,-999.0,-999.0,35,-99.99,,,-99.99,meteohub,2013-03-29 16:02:00,
2013-03-29 16:07:00,41.7,16.2,29.51,North,-999,-999.0,-999.0,35,-99.99,,,-99.99,meteohub,2013-03-29 16:07:00,
2013-03-29 16:12:00,41.5,16.0,29.51,North,-999,-999.0,-999.0,35,-99.99,,,-99.99,meteohub,2013-03-29 16:12:00,
2013-03-29 16:17:00,41.4,15.8,29.51,North,-999,-999.0,-999.0,35,-99.99,,,-99.99,meteohub,2013-03-29 16:17:00,
2013-03-29 16:22:00,41.2,16.3,29.51,North,-999,-999.0,-999.0,36,-99.99,,,-99.99,meteohub,2013-03-29 16:22:00,
2013-03-29 16:27:00,41.2,16.3,29.51,North,-999,-999.0,-999.0,36,-99.99,,,-99.99,meteohub,2013-03-29 16:27:00,
2013-03-29 16:37:00,40.6,15.8,29.48,North,-999,-999.0,-999.0,36,-99.99,,,-99.99,meteohub,2013-03-29 16:37:00,
2013-03-29 16:42:00,40.8,16.0,29.48,North,-999,-999.0,-999.0,36,-99.99,,,-99.99,meteohub,2013-03-29 16:42:00,
2013-03-29 16:47:00,40.6,15.8,29.48,North,-999,-999.0,-999.0,36,-99.99,,,-99.99,meteohub,2013-03-29 16:47:00,
2013-03-29 16:52:00,40.5,16.3,29.48,North,-999,-999.0,-999.0,37,-99.99,,,-99.99,meteohub,2013-03-29 16:52:00,
2013-03-29 17:02:00,39.9,17.1,29.48,North,-999,-999.0,-999.0,39,-99.99,,,-99.99,meteohub,2013-03-29 17:02:00,
2013-03-29 17:12:00,39.6,16.7,29.51,North,-999,-999.0,-999.0,39,-99.99,,,-99.99,meteohub,2013-03-29 17:12:00,
2013-03-29 17:17:00,39.6,17.2,29.51,North,-999,-999.0,-999.0,40,-99.99,,,-99.99,meteohub,2013-03-29 17:17:00,
2013-03-29 17:22:00,39.4,17.8,29.51,North,-999,-999.0,-999.0,41,-99.99,,,-99.99,meteohub,2013-03-29 17:22:00,
2013-03-29 17:32:00,39.0,18.0,29.51,North,-999,-999.0,-999.0,42,-99.99,,,-99.99,meteohub,2013-03-29 17:32:00,
2013-03-29 17:37:00,38.8,18.3,29.51,North,-999,-999.0,-999.0,43,-99.99,,,-99.99,meteohub,2013-03-29 17:37:00,
2013-03-29 17:42:00,38.7,18.1,29.51,North,-999,-999.0,-999.0,43,-99.99,,,-99.99,meteohub,2013-03-29 17:42:00,
2013-03-29 17:52:00,38.1,18.7,29.51,North,-999,-999.0,-999.0,45,-99.99,,,-99.99,meteohub,2013-03-29 17:52:00,
2013-03-29 17:57:00,38.1,19.8,29.51,North,-999,-999.0,-999.0,47,-99.99,,,-99.99,meteohub,2013-03-29 17:57:00,
2013-03-29 18:02:00,38.1,19.2,29.51,North,-999,-999.0,-999.0,46,-99.99,,,-99.99,meteohub,2013-03-29 18:02:00,
2013-03-29 18:12:00,37.9,20.1,29.51,North,-999,-999.0,-999.0,48,-99.99,,,-99.99,meteohub,2013-03-29 18:12:00,
2013-03-29 18:17:00,37.8,20.3,29.51,North,-999,-999.0,-999.0,49,-99.99,,,-99.99,meteohub,2013-03-29 18:17:00,
2013-03-29 18:27:00,37.4,20.5,29.51,North,-999,-999.0,-999.0,50,-99.99,,,-99.99,meteohub,2013-03-29 18:27:00,
2013-03-29 18:37:00,37.0,20.7,29.51,North,-999,-999.0,-999.0,51,-99.99,,,-99.99,meteohub,2013-03-29 18:37:00,
2013-03-29 18:42:00,37.0,20.7,29.51,North,-999,-999.0,-999.0,51,-99.99,,,-99.99,meteohub,2013-03-29 18:42:00,
2013-03-29 18:47:00,37.0,21.0,29.51,North,-999,-999.0,-999.0,52,-99.99,,,-99.99,meteohub,2013-03-29 18:47:00,
2013-03-29 18:52:00,36.9,20.8,29.51,North,-999,-999.0,-999.0,52,-99.99,,,-99.99,meteohub,2013-03-29 18:52:00,
2013-03-29 19:02:00,36.5,19.8,29.51,North,-999,-999.0,-999.0,50,-99.99,,,-99.99,meteohub,2013-03-29 19:02:00,
2013-03-29 19:07:00,36.1,18.9,29.51,North,-999,-999.0,-999.0,49,-99.99,,,-99.99,meteohub,2013-03-29 19:07:00,
2013-03-29 19:12:00,35.6,18.3,29.51,North,-999,-999.0,-999.0,49,-99.99,,,-99.99,meteohub,2013-03-29 19:12:00,
2013-03-29 19:22:00,35.4,18.7,29.51,North,-999,-999.0,-999.0,50,-99.99,,,-99.99,meteohub,2013-03-29 19:22:00,
2013-03-29 19:32:00,34.7,18.0,29.51,North,-999,-999.0,-999.0,50,-99.99,,,-99.99,meteohub,2013-03-29 19:32:00,
2013-03-29 19:37:00,34.5,17.8,29.51,North,-999,-999.0,-999.0,50,-99.99,,,-99.99,meteohub,2013-03-29 19:37:00,
2013-03-29 19:47:00,34.2,18.0,29.51,North,-999,-999.0,-999.0,51,-99.99,,,-99.99,meteohub,2013-03-29 19:47:00,
2013-03-29 19:52:00,34.0,17.8,29.51,North,-999,-999.0,-999.0,51,-99.99,,,-99.99,meteohub,2013-03-29 19:52:00,
2013-03-29 19:57:00,33.6,17.4,29.51,North,-999,-999.0,-999.0,51,-99.99,,,-99.99,meteohub,2013-03-29 19:57:00,
2013-03-29 20:02:00,33.3,17.1,29.51,North,-999,-999.0,-999.0,51,-99.99,,,-99.99,meteohub,2013-03-29 20:02:00,
2013-03-29 20:07:00,33.3,17.6,29.51,North,-999,-999.0,-999.0,52,-99.99,,,-99.99,meteohub,2013-03-29 20:07:00,
2013-03-29 20:12:00,32.9,17.2,29.51,North,-999,-999.0,-999.0,52,-99.99,,,-99.99,meteohub,2013-03-29 20:12:00,
2013-03-29 20:17:00,33.1,17.4,29.51,North,-999,-999.0,-999.0,52,-99.99,,,-99.99,meteohub,2013-03-29 20:17:00,
2013-03-29 20:22:00,33.3,18.0,29.51,North,-999,-999.0,-999.0,53,-99.99,,,-99.99,meteohub,2013-03-29 20:22:00,
2013-03-29 20:32:00,33.8,18.5,29.51,North,-999,-999.0,-999.0,53,-99.99,,,-99.99,meteohub,2013-03-29 20:32:00,
2013-03-29 20:37:00,34.2,19.2,29.51,North,-999,-999.0,-999.0,54,-99.99,,,-99.99,meteohub,2013-03-29 20:37:00,
2013-03-29 20:42:00,34.3,19.4,29.51,North,-999,-999.0,-999.0,54,-99.99,,,-99.99,meteohub,2013-03-29 20:42:00,
2013-03-29 20:52:00,34.5,19.6,29.51,North,-999,-999.0,-999.0,54,-99.99,,,-99.99,meteohub,2013-03-29 20:52:00,
2013-03-29 20:57:00,34.5,19.6,29.51,North,-999,-999.0,-999.0,54,-99.99,,,-99.99,meteohub,2013-03-29 20:57:00,
2013-03-29 21:02:00,34.7,20.3,29.51,North,-999,-999.0,-999.0,55,-99.99,,,-99.99,meteohub,2013-03-29 21:02:00,
2013-03-29 21:12:00,34.9,20.5,29.51,North,-999,-999.0,-999.0,55,-99.99,,,-99.99,meteohub,2013-03-29 21:12:00,
2013-03-29 21:17:00,34.9,20.8,29.51,North,-999,-999.0,-999.0,56,-99.99,,,-99.99,meteohub,2013-03-29 21:17:00,
2013-03-29 21:27:00,34.9,20.8,29.51,North,-999,-999.0,-999.0,56,-99.99,,,-99.99,meteohub,2013-03-29 21:27:00,
2013-03-29 21:32:00,34.7,20.7,29.51,North,-999,-999.0,-999.0,56,-99.99,,,-99.99,meteohub,2013-03-29 21:32:00,
2013-03-29 21:42:00,34.3,20.3,29.51,North,-999,-999.0,-999.0,56,-99.99,,,-99.99,meteohub,2013-03-29 21:42:00,
2013-03-29 21:47:00,34.0,19.9,29.51,North,-999,-999.0,-999.0,56,-99.99,,,-99.99,meteohub,2013-03-29 21:47:00,
2013-03-29 21:52:00,33.4,19.4,29.51,North,-999,-999.0,-999.0,56,-99.99,,,-99.99,meteohub,2013-03-29 21:52:00,
2013-03-29 21:57:00,33.3,19.8,29.51,North,-999,-999.0,-999.0,57,-99.99,,,-99.99,meteohub,2013-03-29 21:57:00,
2013-03-29 22:02:00,33.1,19.9,29.51,North,-999,-999.0,-999.0,58,-99.99,,,-99.99,meteohub,2013-03-29 22:02:00,
2013-03-29 22:07:00,32.7,19.6,29.51,North,-999,-999.0,-999.0,58,-99.99,,,-99.99,meteohub,2013-03-29 22:07:00,
2013-03-29 22:12:00,32.9,20.1,29.51,North,-999,-999.0,-999.0,59,-99.99,,,-99.99,meteohub,2013-03-29 22:12:00,
2013-03-29 22:22:00,33.3,21.4,29.51,North,-999,-999.0,-999.0,61,-99.99,,,-99.99,meteohub,2013-03-29 22:22:00,
2013-03-29 22:27:00,33.1,21.2,29.51,North,-999,-999.0,-999.0,61,-99.99,,,-99.99,meteohub,2013-03-29 22:27:00,
2013-03-29 22:32:00,32.7,20.5,29.51,North,-999,-999.0,-999.0,60,-99.99,,,-99.99,meteohub,2013-03-29 22:32:00,
2013-03-29 22:42:00,33.1,21.6,29.51,North,-999,-999.0,-999.0,62,-99.99,,,-99.99,meteohub,2013-03-29 22:42:00,
2013-03-29 22:47:00,33.1,21.6,29.51,North,-999,-999.0,-999.0,62,-99.99,,,-99.99,meteohub,2013-03-29 22:47:00,
2013-03-29 22:52:00,33.3,22.1,29.51,North,-999,-999.0,-999.0,63,-99.99,,,-99.99,meteohub,2013-03-29 22:52:00,
2013-03-29 23:02:00,33.4,22.3,29.51,North,-999,-999.0,-999.0,63,-99.99,,,-99.99,meteohub,2013-03-29 23:02:00,
2013-03-29 23:12:00,33.6,22.5,29.51,North,-999,-999.0,-999.0,63,-99.99,,,-99.99,meteohub,2013-03-29 23:12:00,
2013-03-29 23:17:00,33.6,22.1,29.51,North,-999,-999.0,-999.0,62,-99.99,,,-99.99,meteohub,2013-03-29 23:17:00,
2013-03-29 23:22:00,33.6,22.5,29.51,North,-999,-999.0,-999.0,63,-99.99,,,-99.99,meteohub,2013-03-29 23:22:00,
2013-03-29 23:27:00,33.6,22.5,29.51,North,-999,-999.0,-999.0,63,-99.99,,,-99.99,meteohub,2013-03-29 23:27:00,
2013-03-29 23:32:00,33.6,22.5,29.51,North,-999,-999.0,-999.0,63,-99.99,,,-99.99,meteohub,2013-03-29 23:32:00,
2013-03-29 23:42:00,33.8,23.0,29.51,North,-999,-999.0,-999.0,64,-99.99,,,-99.99,meteohub,2013-03-29 23:42:00,
2013-03-29 23:47:00,33.6,22.8,29.51,North,-999,-999.0,-999.0,64,-99.99,,,-99.99,meteohub,2013-03-29 23:47:00,
2013-03-29 23:52:00,33.6,22.8,29.51,North,-999,-999.0,-999.0,64,-99.99,,,-99.99,meteohub,2013-03-29 23:52:00,